Powrót do katalogu

HULIANWANG DIGUI-06

AktywnyŁącznośćPO
NORAD 62328·PAYLOAD·🇨🇳 China

Wystrzelony Dec 16, 2024 z Wenchang Space Launch Site

Loading…

Następne Przeloty (najbliższe 24 godziny)

TLE

ŚwieżeSource: Space-Track

Epoka: Sep 14, 2026, 13:27 UTC

1 62328U 24240F   26257.56082193  .00000066  00000-0  11993-3 0  9997
2 62328  86.4976 312.9574 0001712  84.7397 275.3933 13.24411164 84475

Śledź HULIANWANG DIGUI-06 w czasie rzeczywistym z AllMySat

Download on the App Store